EW8780 Weather Reports


time (UTC)temp
C
wind
direction
speed
KPH
gust
KPH
rain 1hr
cm
rain 24hr
cm
rain mn
cm
humidity
%
barometer
mb
20260904073101 14 248 1.6 4.8 0.00 0.00 0.00 90 1008.4
20260904071606 14 249 0.0 3.2 0.00 0.00 0.00 91 1008.3
20260904070053 14 254 0.0 0.0 0.00 0.00 0.00 92 1008.2
20260904064551 14 254 0.0 1.6 0.00 0.00 0.00 92 1008.4
20260904063050 14 254 0.0 1.6 0.00 0.00 0.00 92 1008.4
20260904061549 14 237 0.0 0.0 0.00 0.00 0.00 92 1008.5
20260904060051 14 237 0.0 1.6 0.00 0.00 0.00 92 1008.4
20260904054548 14 237 0.0 3.2 0.00 0.00 0.00 91 1008.3
20260904053048 14 237 0.0 1.6 0.00 0.00 0.00 91 1008.5
20260904051547 14 237 0.0 1.6 0.00 0.00 0.00 90 1008.6
20260904050048 14 237 0.0 3.2 0.00 0.00 0.00 91 1008.6
20260904044546 13 237 0.0 1.6 0.00 0.00 0.00 92 1008.5
20260904043045 13 237 0.0 3.2 0.00 0.00 0.00 92 1008.5
20260904041544 13 237 0.0 3.2 0.00 0.00 0.00 92 1008.5
20260904040044 13 237 0.0 3.2 0.00 0.00 0.00 92 1008.6
20260904034543 13 237 0.0 3.2 0.00 0.03 0.00 92 1008.5
20260904033043 13 237 0.0 0.0 0.00 0.03 0.00 91 1008.4
20260904031541 14 237 0.0 0.0 0.00 0.03 0.00 90 1008.5
20260904030041 14 237 0.0 1.6 0.00 0.03 0.00 89 1008.4
20260904024540 15 237 0.0 1.6 0.00 0.05 0.00 87 1008.4
20260904023039 15 237 0.0 6.4 0.00 0.05 0.00 84 1008.4
20260904021549 16 251 3.2 6.4 0.00 0.05 0.00 83 1008.5
20260904020039 16 234 1.6 8.0 0.00 0.05 0.00 83 1008.5
20260904014540 17 234 3.2 11.3 0.00 0.20 0.00 81 1008.6
20260904013037 17 227 3.2 9.7 0.00 0.20 0.00 84 1008.5
20260904011548 17 191 1.6 6.4 0.00 0.20 0.00 83 1008.4
20260904010036 17 229 1.6 9.7 0.00 0.20 0.00 83 1008.5
20260904004535 17 200 1.6 8.0 0.00 0.30 0.00 83 1008.6
20260904003034 17 237 3.2 9.7 0.00 0.30 0.00 83 1008.4
20260904001533 17 217 3.2 11.3 0.00 0.30 0.00 81 1008.5
20260904000032 18 227 3.2 11.3 0.00 0.30 0.00 79 1008.5
20260903234530 18 238 4.8 11.3 0.00 0.79 0.00 82 1008.6
20260903233029 18 203 4.8 12.9 0.00 0.79 0.00 81 1008.7
20260903231529 20 216 6.4 14.5 0.00 0.79 0.00 79 1008.8
20260903230035 20 182 8.0 17.7 0.00 0.79 0.00 78 1008.8
20260903224534 19 180 4.8 14.5 0.00 1.32 0.00 79 1008.9
20260903223026 20 229 6.4 16.1 0.00 1.32 0.00 77 1009.0
20260903221525 19 194 4.8 14.5 0.00 1.32 0.00 80 1009.0
20260903220042 18 200 4.8 11.3 0.00 1.32 0.00 81 1009.0
20260903214525 18 193 3.2 8.0 0.00 2.08 0.00 85 1008.9
20260903213026 18 211 3.2 8.0 0.00 2.08 0.00 84 1009.0
20260903211521 18 236 3.2 9.7 0.00 2.08 0.00 83 1009.0
20260903210025 20 236 3.2 11.3 0.00 2.08 0.00 86 1009.1
20260903204518 18 187 3.2 11.3 0.00 2.57 0.00 89 1009.1
20260903203017 17 193 3.2 8.0 0.00 2.57 0.00 92 1009.2
20260903201521 17 221 1.6 6.4 0.00 2.57 0.00 93 1009.1
20260903200010 16 213 1.6 4.8 0.00 2.57 0.00 94 1009.2
20260903194509 16 190 1.6 6.4 0.00 3.00 0.00 94 1009.2
20260903193011 15 221 1.6 8.0 0.00 3.00 0.00 93 1009.3
20260903191509 16 167 3.2 8.0 0.00 3.00 0.00 93 1009.1
20260903190008 16 200 1.6 6.4 0.00 3.00 0.00 94 1009.0
20260903184506 16 238 1.6 6.4 0.00 3.25 0.00 94 1009.0
20260903183006 16 236 1.6 4.8 0.00 3.25 0.00 94 1009.0
20260903181504 16 220 0.0 3.2 0.00 3.25 0.00 95 1009.0
20260903180004 15 218 1.6 4.8 0.00 3.25 0.00 95 1008.9
20260903174504 16 242 1.6 6.4 0.00 3.63 0.00 95 1008.9
20260903173015 16 229 1.6 4.8 0.00 3.63 0.00 95 1008.8
20260903171503 16 225 1.6 6.4 0.00 3.63 0.00 96 1008.8
20260903170002 16 236 1.6 6.4 0.00 3.63 0.00 96 1008.8
20260903164501 16 273 0.0 3.2 0.00 4.06 0.00 96 1008.9
20260903163101 15 277 0.0 1.6 0.00 4.06 0.00 96 1008.9
20260903161558 15 277 0.0 3.2 0.00 4.06 0.00 96 1009.0
20260903160058 15 278 0.0 3.2 0.00 4.06 0.00 96 1009.1
20260903154551 15 240 0.0 0.0 0.00 4.39 0.00 97 1009.3
20260903153048 15 240 0.0 0.0 0.00 4.39 0.00 96 1009.3
20260903151547 15 240 0.0 1.6 0.00 4.39 0.00 96 1009.2
20260903150054 14 244 0.0 3.2 0.00 4.39 0.00 96 1009.3
20260903144545 14 242 0.0 3.2 0.00 4.47 0.00 96 1009.2
20260903143052 14 242 1.6 6.4 0.00 4.47 0.00 96 1009.4
20260903141542 14 216 0.0 3.2 0.00 4.47 0.00 96 1009.3
20260903140041 14 205 0.0 1.6 0.00 4.47 0.00 96 1009.3
20260903134549 14 205 0.0 3.2 0.00 4.47 0.00 96 1009.1
20260903133040 14 205 0.0 0.0 0.00 4.47 0.00 96 1009.1
20260903131538 14 205 0.0 4.8 0.00 4.47 0.00 96 1009.1
20260903130039 14 204 0.0 3.2 0.00 4.47 0.00 96 1009.2
20260903124537 14 204 0.0 1.6 0.00 4.47 0.00 96 1009.1
20260903123036 14 204 0.0 0.0 0.00 4.47 0.00 96 1009.1
20260903121535 14 204 0.0 1.6 0.00 4.47 0.00 96 1009.3
20260903120035 14 204 0.0 0.0 0.00 4.47 0.00 96 1009.4
20260903114532 14 204 0.0 0.0 0.00 4.47 0.00 96 1009.5
20260903113033 14 204 0.0 3.2 0.00 4.47 0.00 96 1009.5
20260903111527 14 204 0.0 1.6 0.00 4.47 0.00 96 1009.7
20260903110026 14 160 0.0 8.0 0.00 4.47 0.00 96 1009.8
20260903104526 14 184 0.0 4.8 0.00 4.47 0.00 96 1009.9
20260903103023 14 181 0.0 1.6 0.00 4.47 0.00 96 1009.9
20260903101521 14 181 0.0 3.2 0.00 4.47 0.00 96 1010.0
20260903100020 14 181 0.0 4.8 0.00 4.47 0.00 96 1010.1
20260903094520 14 238 1.6 4.8 0.00 4.47 0.00 96 1010.1
20260903093023 14 238 0.0 1.6 0.00 4.47 0.00 96 1010.2
20260903091515 14 238 0.0 3.2 0.00 4.47 0.00 96 1010.2
20260903090015 14 238 0.0 3.2 0.00 4.47 0.00 96 1010.3
20260903084516 14 238 0.0 0.0 0.00 4.47 0.00 96 1010.4
20260903083012 14 238 0.0 1.6 0.00 4.47 0.00 96 1010.2
20260903081529 14 238 0.0 1.6 0.00 4.47 0.00 96 1010.2
20260903080009 14 238 0.0 1.6 0.00 4.47 0.00 96 1010.1
20260903074509 14 238 0.0 1.6 0.00 4.47 0.00 96 1010.2